Location: Unspecified
(0.0000°N, 0.0000°E)
Time: 05:05:18
(UTC+00:00)

deb West Ford - Pass Details

Date: 26 May 2026
Orbit: 2163 x 4941 km, 86.7° (Epoch: 8 June)

Event Time Altitude Azimuth Distance (km) Brightness Sun altitude
Exits shadow 02:48:37 14° 319° (NW) 4,369 ? -43.1°
Drops below altitude 10° 02:50:00 10° 324° (NW) 4,686 ? -42.8°
Sets 02:53:48 0° 335° (NNW) 5,680 ? -42.0°
